Change the Weather History Date:

Thursday, November 15, 2012

  Actual Average Record
Temperature  
Mean Temperature 30 °F -  
Max Temperature 41 °F 44 °F 70 °F (2008)
Min Temperature 19 °F 28 °F 14 °F (1996)
Degree Days  
Heating Degree Days 35    
Moisture  
Dew Point 20 °F    
Average Humidity 71    
Maximum Humidity 88    
Minimum Humidity 43    
Precipitation  
Precipitation 0.00 in - - ()
Sea Level Pressure  
Sea Level Pressure 30.43 in    
Wind  
Wind Speed 1 mph (WSW)    
Max Wind Speed 7 mph    
Max Gust Speed -    
Visibility 10 miles    
Events      
Averages and records for this station are not official NWS values.
T = Trace of Precipitation, MM = Missing Value Source: NWS Daily Summary

Daily Weather History Graph

Daily Weather History Graph

Search for Another Location

Airport or City:

Trip Planner

Search our weather history database for the weather conditions in past years. The results will help you decide how hot, cold, wet, or windy it might be!

Date:

Astronomy

Nov. 15, 2012 Rise Set
Actual Time 6:44 AM EST 4:29 PM EST
Civil Twilight 6:14 AM EST 4:59 PM EST
Nautical Twilight 5:40 AM EST 5:34 PM EST
Astronomical Twilight 5:06 AM EST 6:07 PM EST
Moon 8:39 AM EST (11/15) 6:16 PM EST (11/15)
Length of Visible Light 10h 45m
Length of Day
9h 44m
Waxing Crescent, 5% of the Moon is Illuminated
Nov 15
Waxing Crescent
Nov 20
First Quarter
Nov 28
Full
Dec 6
Last Quarter
Dec 13
New

Hourly Weather History & Observations

Time (EST) Temp. Windchill Dew Point Humidity Pressure Visibility Wind Dir Wind Speed Gust Speed Precip Events Conditions
12:52 AM 23.0 °F - 18.0 °F 81% 30.50 in 10.0 mi Calm Calm - N/A   Clear
1:52 AM 21.0 °F - 18.0 °F 88% 30.51 in 10.0 mi Calm Calm - N/A   Clear
2:52 AM 21.0 °F - 16.0 °F 81% 30.51 in 10.0 mi Calm Calm - N/A   Clear
3:52 AM 19.9 °F - 16.0 °F 85% 30.48 in 10.0 mi Calm Calm - N/A   Clear
4:52 AM 21.0 °F 16.2 °F 17.1 °F 85% 30.50 in 10.0 mi SE 3.5 mph - N/A   Clear
5:52 AM 21.9 °F - 17.1 °F 82% 30.51 in 10.0 mi Calm Calm - N/A   Clear
6:52 AM 21.0 °F - 16.0 °F 81% 30.50 in 10.0 mi Calm Calm - N/A   Clear
7:52 AM 24.1 °F - 19.9 °F 84% 30.50 in 10.0 mi Calm Calm - N/A   Clear
8:52 AM 28.0 °F - 23.0 °F 81% 30.49 in 10.0 mi Calm Calm - N/A   Clear
9:52 AM 33.1 °F - 25.0 °F 72% 30.47 in 10.0 mi Calm Calm - N/A   Clear
10:52 AM 36.0 °F 33.3 °F 21.9 °F 57% 30.45 in 10.0 mi West 3.5 mph - N/A   Clear
11:52 AM 37.9 °F 35.5 °F 21.0 °F 51% 30.42 in 10.0 mi West 3.5 mph - N/A   Clear
12:52 PM 39.9 °F 36.7 °F 19.0 °F 43% 30.39 in 10.0 mi Variable 4.6 mph - N/A   Clear
1:52 PM 41.0 °F 36.4 °F 21.0 °F 45% 30.37 in 10.0 mi Variable 6.9 mph - N/A   Clear
2:52 PM 39.9 °F 37.8 °F 21.9 °F 49% 30.37 in 10.0 mi Variable 3.5 mph - N/A   Clear
3:52 PM 39.0 °F 36.8 °F 21.0 °F 49% 30.37 in 10.0 mi West 3.5 mph - N/A   Clear
4:52 PM 35.1 °F 31.0 °F 24.1 °F 64% 30.37 in 10.0 mi WSW 4.6 mph - N/A   Clear
5:52 PM 36.0 °F 30.3 °F 23.0 °F 59% 30.37 in 8.0 mi WSW 6.9 mph - N/A   Clear
6:52 PM 34.0 °F 29.8 °F 23.0 °F 64% 30.37 in 10.0 mi WSW 4.6 mph - N/A   Clear
7:52 PM 30.0 °F - 23.0 °F 75% 30.37 in 10.0 mi Calm Calm - N/A   Clear
9:52 PM 27.0 °F - 21.9 °F 81% 30.36 in 10.0 mi Calm Calm - N/A   Clear
10:52 PM 25.0 °F - 21.0 °F 85% 30.35 in 10.0 mi Calm Calm - N/A   Clear
11:52 PM 24.1 °F - 19.9 °F 84% 30.34 in 10.0 mi Calm Calm - N/A   Clear